* Astronomy

Members Login
Username 
 
Password 
    Remember Me  
Post Info TOPIC: SL-6 rocket body re-entry


L

Posts: 131433
Date:
RE: SL-6 rocket body re-entry
Permalink  
 


Update
The SL-6 rocket body re-entered the Earths atmosphere on the 29th July, 2011 @ 18:05 GMT ± 1 minute.

Inclination: 62.17°
Revolution Number:   13345
Predicted  Location:   51°S, 97°E



__________________


L

Posts: 131433
Date:
Permalink  
 

Update
The SL-6 rocket body is predicted to re-enter the Earths atmosphere on the 29th July, 2011 @ 18:23 GMT ± 7 hours.

SL-6 RB
1 22674U 93035D   11210.47353763  .16518871  81905-5  10000-3 0  9241
2 22674 062.1528 358.0994 0396790 279.1531 201.6455 15.72681551133413

Period:       99.64
Inclination: 62.17°
Apogee:     1393 km
Perigee:     89 km
Revolution Number:   13345
Predicted  Location:   3.1°S, 133°E



__________________


L

Posts: 131433
Date:
Permalink  
 

Update
The SL-6 rocket body is predicted to re-enter the Earths atmosphere on the 29th July, 2011 @ 17:47 GMT ± 24 hours.

SL-6 RB
1 22674U 93035D   11209.59731200  .34720559  00000-0  72919-2 0  9176
2 22674 062.3107 001.3140 0648599 267.5945 085.9733 14.89817965133167

Period:       99.64
Inclination: 62.17°
Apogee:     1393 km
Perigee:     89 km
Revolution Number:   13346
Predicted  Location:   39.8°S, 350°E



__________________


L

Posts: 131433
Date:
Permalink  
 

A SL-6 rocket body that was launched on the 26th May, 1993, from the Plesetsk launch site for the MOLNIYA 1-86 mission is predicted to re-enter the Earths atmosphere on the 30th July, 2011 @ 06:40 GMT ± 48 hours.

SL-6 RB
1 22674U 93035D   11207.89792958  .19202310  22581-4  29772-3 0  9078
2 22674 062.1627 006.6653 1095804 279.0304 256.2689 14.01824929133033

Period:       106.72
Inclination: 62.16°
Apogee:     2055 km
Perigee:     95 km
Revolution Number:   13354
Predicted  Location:   9.6°S, 133.3°E



__________________
Page 1 of 1  sorted by
 
Quick Reply

Please log in to post quick replies.



Create your own FREE Forum
Report Abuse
Powered by ActiveBoard